TimeCDT,TemperatureF,Dew PointF,Humidity,Sea Level PressureIn,VisibilityMPH,Wind Direction,Wind SpeedMPH,Gust SpeedMPH,PrecipitationIn,Events,Conditions,WindDirDegrees,DateUTC
12:41 AM,75.2,71.6,89,29.77,7.0,SSE,9.2,20.7,N/A,,Scattered Clouds,150,2013-04-12 05:41:00
1:43 AM,75.2,71.6,89,29.78,7.0,SE,10.4,21.9,N/A,,Scattered Clouds,140,2013-04-12 06:43:00
2:42 AM,75.2,71.6,89,29.79,7.0,SE,9.2,-,N/A,,Scattered Clouds,140,2013-04-12 07:42:00
3:41 AM,75.2,71.6,89,29.81,7.0,SE,8.1,-,N/A,,Scattered Clouds,140,2013-04-12 08:41:00
4:51 AM,75.2,71.6,89,29.77,7.0,SE,11.5,23.0,N/A,,Partly Cloudy,140,2013-04-12 09:51:00
5:41 AM,75.2,71.6,89,29.80,7.0,SE,8.1,-,N/A,,Partly Cloudy,140,2013-04-12 10:41:00
6:44 AM,75.2,71.6,89,29.79,7.0,SSE,6.9,-,N/A,,Mostly Cloudy,150,2013-04-12 11:44:00
7:43 AM,75.2,71.6,89,29.84,6.0,SSE,8.1,-,N/A,,Mostly Cloudy,150,2013-04-12 12:43:00
8:45 AM,78.8,73.4,83,29.86,6.0,SSE,13.8,-,N/A,,Mostly Cloudy,150,2013-04-12 13:45:00
9:45 AM,80.6,73.4,79,29.90,6.0,SSE,11.5,23.0,N/A,,Mostly Cloudy,150,2013-04-12 14:45:00
10:47 AM,80.6,73.4,79,29.87,6.0,SSE,15.0,-,N/A,,Mostly Cloudy,150,2013-04-12 15:47:00
11:44 AM,82.4,73.4,74,29.86,6.0,SE,15.0,-,N/A,,Mostly Cloudy,140,2013-04-12 16:44:00
12:41 PM,82.4,71.6,70,29.83,6.0,SE,15.0,-,N/A,,Mostly Cloudy,140,2013-04-12 17:41:00
1:47 PM,80.6,71.6,74,29.84,6.0,SSE,13.8,-,N/A,,Mostly Cloudy,150,2013-04-12 18:47:00
2:45 PM,82.4,71.6,70,29.83,6.0,SSE,13.8,-,N/A,,Mostly Cloudy,160,2013-04-12 19:45:00
3:46 PM,82.4,73.4,74,29.83,7.0,SSE,13.8,-,N/A,,Scattered Clouds,150,2013-04-12 20:46:00
4:45 PM,82.4,73.4,74,29.80,7.0,SSE,13.8,-,N/A,,Scattered Clouds,150,2013-04-12 21:45:00
5:47 PM,78.8,71.6,78,29.81,7.0,SSE,11.5,-,N/A,,Scattered Clouds,150,2013-04-12 22:47:00
6:41 PM,77.0,73.4,89,29.78,8.0,SE,13.8,-,N/A,,Mostly Cloudy,140,2013-04-12 23:41:00
7:40 PM,77.0,73.4,89,29.83,7.0,SE,11.5,-,N/A,,Mostly Cloudy,130,2013-04-13 00:40:00
8:41 PM,75.2,73.4,94,29.85,7.0,SE,9.2,-,N/A,,Scattered Clouds,130,2013-04-13 01:41:00
9:44 PM,75.2,73.4,94,29.90,7.0,SE,10.4,-,N/A,,Scattered Clouds,140,2013-04-13 02:44:00
10:46 PM,75.2,73.4,94,29.87,7.0,SE,12.7,-,N/A,,Partly Cloudy,140,2013-04-13 03:46:00
11:43 PM,75.2,73.4,94,29.89,7.0,SE,9.2,-,N/A,,Partly Cloudy,130,2013-04-13 04:43:00